{"data":{"norad_id":69682,"intl_designator":"2026-145F","name":"STARLINK-37997","alt_names":[],"object_type":"PAYLOAD","status":"ACTIVE","operator":null,"country":"US","launch_date":"2026-06-25","launch_site_code":"AFWTR","launch_vehicle":null,"mission":null,"orbit_class":"UNKNOWN","rcs_meters":null,"size_class":null,"mass_kg":null,"dimensions":null,"purposes":["comms"],"wikipedia_slug":null,"has_3d_model":false,"image_url":null,"decayed_at":null,"tle_current":{"epoch":"2026-09-19T23:53:26.378880Z","epoch_age_seconds":65135,"freshness":"FRESH","line1":"1 69682U 26145F   26262.99544420  .00011435  00000+0  35597-3 0  9999","line2":"2 69682  97.2823 109.6341 0002369  83.7902 276.3611 15.33444861 14715","mean_motion":15.33444861,"eccentricity":0.0002369,"inclination_deg":97.2823,"raan_deg":109.6341,"arg_perigee_deg":83.7902,"mean_anomaly_deg":276.3611,"bstar":0.00035597,"rev_number":1471,"period_min":93.906213169017,"perigee_km":463.92232011306,"apogee_km":467.16485597567,"semimajor_km":6843.6805880444,"source":"CELESTRAK","updated_at":"2026-09-20T09:00:44.252894Z"}}}